Location: Bettgenhausen
(50.6463°N, 7.5681°E)
Time: 04:21:07
(UTC+00:00)

Okean 1-7 - Pass Details

Date: 27 February 2020
Orbit: 592 x 618 km, 82.5° (Epoch: 09 April)

Event Time Altitude Azimuth Distance (km) Brightness Sun altitude
Rises 18:40:26 0° 347° (NNW) 2,866 6.7 -15.6°
Reaches altitude 10° 18:42:40 10° 344° (NNW) 1,962 5.9 -16.0°
Maximum altitude 18:46:56 61° 264° (W) 691 3.5 -16.6°
Drops below altitude 10° 18:51:14 10° 184° (S) 1,962 5.6 -17.3°
Sets 18:53:27 0° 181° (S) 2,865 6.4 -17.6°
